Regional Weather Roundup
Issued by NWS Green Bay, WI

Home | Current Version | Previous Version | Graphics & Text | Print | Product List | Glossary Off
Versions: 1 2 3 4 5 6 7 8 9 10 11 12 13 14 15 16 17 18 19 20 21 22 23 24 25 26 27 28 29 30 31 32 33 34 35 36 37 38 39 40 41 42 43 44 45 46 47 48 49 50

000
ASUS43 KGRB 220459
RWRGRB

NORTH-CENTRAL AND NORTHEAST WISCONSIN REGIONAL WEATHER ROUNDUP
NATIONAL WEATHER SERVICE GREEN BAY WI
1200 AM CDT WED OCT 22 2014

WIZ005-009-010>012-018-019-220600-
NORTH CENTRAL WISCONSIN

CITY           SKY/WX    TMP DP  RH WIND       PRES   REMARKS
IRONWOOD       CLEAR     36  32  87 E6        30.22F
MANITOWISH WTR NOT AVBL
ARBOR VITAE    NOT AVBL
EAGLE RIVER    NOT AVBL
LAND O LAKES   NOT AVBL
RHINELANDER    CLEAR     33  28  81 SE6       30.28R
PHILLIPS       NOT AVBL
ANTIGO         NOT AVBL
TOMAHAWK       NOT AVBL
MERRILL        NOT AVBL
$$

WIZ013-073-220600-
NORTHEAST WISCONSIN

CITY           SKY/WX    TMP DP  RH WIND       PRES   REMARKS
IRON MOUNTAIN  PTCLDY    27  25  92 CALM      30.30S
MARINETTE      CLEAR     34  28  80 N5        30.30S
$$

WIZ017-030-035>037-045-220600-
CENTRAL WISCONSIN

CITY           SKY/WX    TMP DP  RH WIND       PRES   REMARKS
MEDFORD        NOT AVBL
WAUSAU         PTCLDY    35  31  85 E7        30.28R
MOSINEE        NOT AVBL
MARSHFIELD     CLEAR     38  33  82 S3        30.27S
WISC RAPIDS    CLEAR     32  30  92 E3        30.29S
STEVENS POINT  NOT AVBL
WAUPACA        NOT AVBL
SHAWANO        NOT AVBL
CLINTONVILLE   NOT AVBL
$$

WIZ038-039-048-051-220600-
FOX VALLEY

CITY           SKY/WX    TMP DP  RH WIND       PRES   REMARKS
NWS GREEN BAY  CLEAR     33  32  96 NW5       30.31R
APPLETON       NOT AVBL
OSHKOSH        PTCLDY    39  35  86 CALM      30.29R
FOND DU LAC    PTCLDY    31  28  89 CALM      30.29S
$$

WIZ022-050-052-220600-
EAST CENTRAL WISCONSIN

CITY           SKY/WX    TMP DP  RH WIND       PRES   REMARKS
STURGEON BAY   CLEAR     39  34  81 NE3       30.30S
MANITOWOC      NOT AVBL
SHEBOYGAN      PTCLDY    33  31  92 CALM      30.29R
$$

LMZ563-521-522-541>543-220600-
LAKESHORE

STATION/POSITION TIME  TEMP    WIND        PRES    VSBY  WAVE
                       AIR SEA DIR/SP/G                  HT/PER
                 (UTC) (F)     (DEG/KT/KT) (MB)    (MI)  (FT/S)
SHEBOYGAN LKSHOR 0400   47 49   60/ 15/ 16 1026.2S
KEWAUNEE LKSHORE 0400   46      70/  8/ 12 1024.7F
NORTHPORT PIER   0400   45      80/  8/ 12 1026.1S
N MID LAKE BUOY  0400   46 51   90/ 10/ 14 1026.5S         2/ 4
SISTER BAY LKSHO 0400           30/  3/  8   N/A
CHAMBERS ISLAND  0400   44      50/  9/ 11 1026.1F
MENOMINEE LKSHOR 0400   45      50/  8/ 11 1026.7S
$$



USA.gov is the U.S. government's official web portal to all federal, state and local government web resources and services.